Location: Nidegg
(46.5561°N, 7.4755°E)
Time: 06:23:19
(UTC+00:00)

Daily predictions for brighter satellites

Satellite Brightness Start Highest point End
(mag) Time Altitude Azimuth Time Altitude Azimuth Time Altitude Azimuth
Cosmos 1515 Rocket 3.9 19:15:42 10° NNW 19:20:11 76° W 19:24:37 10° S
Cosmos 389 Rocket 3.4 19:17:20 10° N 19:20:27 30° ENE 19:23:32 10° SE
SPOT 3 Rocket 3.8 19:16:31 10° SE 19:21:34 55° ENE 19:26:39 10° N
Cosmos 1812 3.7 19:18:55 10° N 19:22:21 30° ENE 19:25:46 10° SE
Cosmos 1727 Rocket 4.1 19:16:13 10° N 19:22:35 67° E 19:28:54 10° SSE
Cosmos 2251 Rocket 3.5 19:17:51 10° SSW 19:23:05 76° ESE 19:28:23 10° NNE
Cosmos 1656 3.8 19:21:47 10° NNW 19:27:15 65° ENE 19:32:44 10° SE
Cosmos 1633 3.4 19:27:21 10° SSW 19:30:49 54° WNW 19:34:18 10° N
Cosmos 220 Rocket 4.5 19:27:48 10° N 19:31:51 44° ENE 19:35:53 10° SE
Resurs 01 Rocket 2.1 19:28:29 10° SE 19:32:41 45° ENE 19:36:56 10° N
Cosmos 972 Rocket 3.9 19:28:44 10° NNW 19:33:48 86° ENE 19:38:41 10° SSE
Cosmos 1441 Rocket 3.7 19:34:29 10° SSE 19:38:03 38° E 19:41:34 10° NNE
IRIDIUM 114 4.4 19:35:33 10° SSE 19:40:39 59° E 19:45:48 10° N
Cosmos 614 Rocket 4.2 19:36:41 10° S 19:41:36 48° ESE 19:46:36 10° NNE
Cosmos 1900 4.3 19:39:56 10° SSW 19:44:52 85° ESE 19:49:56 10° NE
USA 267 3.3 19:42:02 10° ENE 19:48:31 60° SE 19:54:57 10° SW
IRIDIUM 103 4.3 19:44:35 10° S 19:49:46 71° E 19:54:59 10° N
GP-B 4.4 19:46:47 10° NNE 19:50:24 24° E 19:53:13 14° SE
Cosmos 1821 Rocket 4.0 19:45:56 10° S 19:51:57 61° E 19:58:04 10° NNE
COSMOS 2406 3.2 19:48:13 10° SSW 19:53:56 72° ESE 19:59:40 10° NNE
Shenzhou-11 Module 2.4 19:52:18 10° WSW 19:54:27 30° S 19:55:30 20° SE
Cosmos 1743 Rocket 4.5 19:50:46 10° SSW 19:55:06 53° WNW 19:59:30 10° N
CZ-2C R/B 3.7 19:51:53 10° NNE 19:56:34 86° ESE 20:01:07 10° SSW
SL-16 R/B 4.2 19:54:11 10° N 19:57:39 16° NE 20:01:07 10° ENE
Intercosmos 25 3.3 19:53:46 10° N 19:58:22 71° ENE 20:01:25 12° SSE
ERS-1 Rocket 4.3 19:56:08 13° ESE 19:59:34 26° ENE 20:03:39 10° N
Lacrosse 5 3.5 19:56:10 10° NW 20:00:34 28° NNE 20:04:57 10° ENE
Cosmos 1862 3.5 19:59:15 10° SSW 20:03:17 78° W 20:07:23 10° N
Cosmos 2369 3.9 19:57:45 10° NNW 20:03:29 64° ENE 20:08:05 16° SE
Sich 1 3.0 19:59:48 10° S 20:04:12 68° E 20:08:38 10° NNE
IRIDIUM 106 4.4 20:02:52 10° S 20:08:05 81° W 20:13:20 10° N
Cosmos 1818 3.6 20:02:37 10° NW 20:08:07 89° NE 20:12:24 17° SE
BREEZE-M DEB (TANK) 2.7 20:05:00 10° W 20:08:11 47° N 20:09:55 12° ENE
Cosmos 2082 Rocket 2.6 20:03:52 10° S 20:09:08 40° ESE 20:14:25 10° NE
Cosmos 2278 4.1 20:07:08 10° NNW 20:12:44 53° ENE 20:16:44 19° SE
Cosmos 2123 Rocket 4.2 20:07:00 10° N 20:13:07 57° ENE 20:18:06 16° SSE
Meteor 2-20 4.5 20:08:46 10° N 20:14:56 67° ENE 20:20:07 15° SSE
Spot 2 Rocket 3.7 20:11:25 16° SSE 20:15:22 60° ENE 20:20:24 10° N
Cosmos 2322 Rocket 4.1 20:16:21 10° N 20:20:17 19° NE 20:24:13 10° E
Meteor 1-4 Rocket 2.6 20:17:22 10° N 20:20:48 54° ENE 20:22:26 27° SE
Cosmos 2239 Rocket 4.4 20:15:08 10° S 20:21:16 86° E 20:27:27 10° N
Cosmos 1184 Rocket 3.6 20:21:02 27° ESE 20:21:49 31° E 20:24:47 10° NNE
Cosmos 1190 Rocket 4.0 20:16:43 10° S 20:21:54 64° ESE 20:27:10 10° NNE
CARTOSAT-1 4.5 20:20:05 21° ESE 20:22:14 34° ENE 20:26:09 10° N
Terra 3.1 20:21:08 18° ESE 20:23:29 26° ENE 20:27:22 10° N
USA 234 3.4 20:18:46 17° ESE 20:24:03 75° NNE 20:30:36 10° NW
CZ-2C R/B 4.1 20:19:22 10° N 20:24:08 38° WNW 20:28:53 10° SW
Cosmos 407 Rocket 3.5 20:19:30 10° SSW 20:24:50 82° ESE 20:30:10 10° NNE
Cosmos 1605 Rocket 4.4 20:21:08 17° SSE 20:25:27 43° E 20:31:09 10° NNE
Cosmos 1666 Rocket 3.4 20:21:30 10° S 20:25:48 76° E 20:30:08 10° NNE
Cosmos 1238 Rocket 3.6 20:28:02 22° E 20:28:02 22° E 20:30:11 10° NE
MetOp-B 4.2 20:25:44 14° S 20:30:20 80° WSW 20:35:44 10° NNW
Meteor 1-27 Rocket 4.0 20:25:40 10° NNW 20:31:34 76° W 20:36:53 13° S
Cosmos 2360 Rocket 4.4 20:31:06 10° N 20:34:12 15° NE 20:37:17 10° ENE
Cosmos 1437 Rocket 4.4 20:31:58 10° NNE 20:34:42 18° ENE 20:35:27 18° E
BREEZE-M DEB (TANK) 4.0 20:34:57 10° W 20:37:30 15° WSW 20:39:00 11° SSW
SPOT 5 3.2 20:35:54 27° ESE 20:37:42 41° ENE 20:41:48 10° N
USA 238 DEB 4.0 20:31:37 10° S 20:37:44 42° ESE 20:44:05 10° NE
USA 238 4.0 20:31:45 10° S 20:37:50 42° ESE 20:44:11 10° NE
SPOT 1/Viking Rocket 3.5 20:39:53 23° SSE 20:43:13 85° ENE 20:48:29 10° NNW
Cosmos 1980 Rocket 2.2 20:38:15 10° NNW 20:43:58 79° ENE 20:47:05 28° SSE
Cosmos 2242 Rocket 4.2 20:41:54 10° N 20:46:07 40° ENE 20:47:28 32° ESE
SL-4 R/B 1.6 20:44:01 10° SW 20:47:57 76° SSE 20:51:35 10° ENE
Cosmos 1763 Rocket 4.5 20:43:56 10° N 20:48:49 35° ENE 20:51:08 24° ESE
BREEZE-M DEB (TANK) 3.0 20:46:14 10° W 20:49:03 64° N 20:56:46 10° E
Genesis I 3.2 20:45:38 10° NW 20:49:31 73° NE 20:50:44 42° SE
Cosmos 405 Rocket 3.2 20:49:22 36° ESE 20:49:34 37° E 20:53:01 10° NNE
Cosmos 1140 Rocket 3.6 20:45:16 10° SSW 20:50:31 79° WNW 20:55:49 10° NNE
ATLAS 5 CENTAUR R/B 3.7 20:47:18 10° WNW 20:52:28 32° WSW 20:57:17 14° S
USA 32 3.9 20:53:02 22° S 20:56:30 84° E 21:01:45 10° N
Cosmos 1633 Rocket 3.6 20:55:05 12° SSW 20:59:08 59° WNW 21:03:31 10° N
Cosmos 1697 Rocket 3.5 20:54:13 10° NW 20:59:32 45° WSW 21:03:04 20° S
Cosmos 1833 Rocket 3.4 20:54:19 10° SW 20:59:49 54° WNW 21:05:21 10° NNE
Cosmos 1867 3.5 21:00:46 10° SSW 21:06:12 83° ESE 21:11:42 10° NE
CENTAUR R/B 2.9 21:04:46 33° SE 21:06:18 38° ESE 21:12:30 10° NE
Meteor 1-18 Rocket 4.2 21:02:01 10° N 21:07:37 67° ENE 21:09:49 37° SSE
Okean 1-7 3.5 21:03:38 10° N 21:07:48 43° ENE 21:08:30 40° ESE
Resurs 01 Rocket 3.9 21:06:10 10° SW 21:09:24 20° W 21:12:40 10° NW
FALCON 9 DEB 3.1 21:10:08 10° WSW 21:13:38 85° NNW 21:15:22 28° ENE
Cosmos 1447 Rocket 4.5 21:08:24 10° N 21:14:48 81° E 21:17:47 34° SSE
Cosmos 1850 Rocket 4.4 21:14:19 40° SE 21:15:14 44° ESE 21:20:14 10° NNE
Meteor 2-4 Rocket 4.2 21:11:46 10° N 21:17:16 46° ENE 21:18:53 36° ESE
Cosmos 1515 3.8 21:14:26 10° N 21:18:14 56° E 21:18:22 56° E
Cosmos 676 Rocket 4.2 21:14:07 10° SSW 21:19:26 71° WNW 21:24:47 10° NNE
ATLAS 5 CENTAUR R/B 3.3 21:19:02 10° NNW 21:21:31 29° NE 21:23:25 22° E
Meteor 1-25 Rocket 4.3 21:17:53 22° SSW 21:21:34 77° WNW 21:27:12 10° N
Cosmos 1470 Rocket 4.0 21:19:31 26° SSW 21:21:50 61° WNW 21:26:13 10° N
GP-B 4.5 21:23:45 10° NNW 21:27:47 35° W 21:30:41 17° SW
USA 267 3.9 21:25:09 10° NE 21:31:31 56° NNW 21:37:53 10° W
NOSS 3-2 (A) 3.3 21:26:33 10° SW 21:32:15 89° SE 21:38:50 10° NE
Cosmos 921 Rocket 3.3 21:30:03 10° NNW 21:34:10 54° WSW 21:34:50 48° SW
ERS-1 Rocket 3.7 21:36:08 31° SSW 21:38:06 46° W 21:42:57 10° NNW
NOSS 3-2 (C) 3.3 21:35:51 37° S 21:38:09 65° ESE 21:44:34 10° NE
Cosmos 841 Rocket 3.9 21:35:51 10° NNW 21:40:56 49° ENE 21:42:00 42° E
Cosmos 540 Rocket 3.9 21:37:21 10° NNW 21:42:22 48° ENE 21:43:22 42° E
SL-16 R/B 2.2 21:37:10 10° NNW 21:42:51 71° ENE 21:44:17 50° SE
Lacrosse 5 2.0 21:39:12 10° NW 21:44:16 68° NE 21:45:31 49° E
Cosmos 468 Rocket 4.0 21:39:16 10° NNW 21:44:35 77° WSW 21:45:45 54° S
Cosmos 1741 Rocket 3.9 21:48:22 54° S 21:49:35 82° ESE 21:54:54 10° NNE
Cosmos 1570 Rocket 4.2 21:46:58 10° NNW 21:52:15 62° ENE 21:53:10 53° ESE
Cosmos 2082 Rocket 3.6 21:48:01 10° WSW 21:53:15 37° NW 21:58:31 10° NNE
Cosmos 2219 Rocket 4.2 21:49:25 10° N 21:53:32 20° NE 21:56:38 13° E
Cosmos 2208 Rocket 4.3 21:49:09 10° NNW 21:54:21 54° ENE 21:55:10 49° E
Cosmos 1814 Rocket 4.3 21:49:37 10° NNW 21:54:43 52° ENE 21:55:32 47° E
Terra 2.6 22:00:02 37° SW 22:01:01 42° W 22:05:33 10° NNW
Cosmos 2322 Rocket 2.1 21:59:29 10° NNW 22:05:13 85° ENE 22:06:13 63° SE
USA 234 3.9 22:06:06 35° SSW 22:07:23 38° SW 22:13:25 10° WNW
Cosmos 2100 Rocket 3.9 22:05:36 46° SSW 22:07:33 81° W 22:13:44 10° N
Meteor 1-11 Rocket 3.8 22:09:10 56° ESE 22:09:35 58° E 22:15:12 10° NNE
Cosmos 1437 Rocket 4.0 22:07:36 10° NNW 22:10:50 34° W 22:10:50 34° W
Cosmos 1242 Rocket 4.3 22:09:55 10° N 22:12:07 26° NE 22:12:07 26° NE
Cosmos 1869 Rocket 3.8 22:13:01 62° W 22:13:13 63° W 22:17:39 10° N
SPOT 5 4.5 22:15:08 19° WSW 22:16:01 20° W 22:19:15 10° NW
Cosmos 2360 Rocket 2.3 22:13:47 10° NNW 22:19:26 62° ENE 22:20:19 55° E
COSMOS 2428 4.3 22:15:24 10° N 22:20:10 26° NE 22:22:36 20° E
Geosat 3.9 22:20:48 74° SSW 22:21:04 76° WSW 22:26:08 10° NNW
ATLAS 3B R/B 2.8 22:21:13 50° ESE 22:21:13 50° ESE 22:27:33 10° NE
Iridium 4 Rocket 3.4 22:21:44 56° W 22:21:45 56° W 22:25:57 10° N
Cosmos 2173 Rocket 4.1 22:21:11 44° SW 22:23:08 67° W 22:29:16 10° N
Cosmos 1500 4.3 22:25:10 40° NW 22:25:10 40° NW 22:28:15 10° N
CRYOSAT 2 4.2 22:21:52 10° N 22:26:46 86° ENE 22:26:46 86° ENE
Cosmos 1980 Rocket 4.1 22:23:42 10° WNW 22:27:14 17° W 22:28:51 15° WSW
ALOS 2 3.3 22:27:44 45° NE 22:27:44 45° NE 22:31:35 10° N
SL-4 R/B 3.1 22:24:11 10° W 22:27:13 37° NNW 22:27:13 37° NNW
Cosmos 1725 Rocket 3.9 22:27:19 62° SSE 22:28:24 78° E 22:34:45 10° N
USA 238 DEB 4.4 22:22:07 10° WSW 22:28:35 51° NW 22:35:22 10° NE
USA 238 4.4 22:22:13 10° WSW 22:28:41 51° NW 22:35:28 10° NE
Cosmos 1763 Rocket 4.4 22:25:47 10° NW 22:30:38 36° WSW 22:31:09 36° WSW
SL-08 R/B 4.3 22:32:19 66° S 22:33:15 86° E 22:39:23 10° N
Cosmos 1536 3.7 22:34:39 46° NNE 22:34:39 46° NNE 22:37:32 10° N
Cosmos 1674 Rocket 4.2 22:29:39 10° N 22:33:13 48° NE 22:33:13 48° NE
Cosmos 1666 3.9 22:37:32 41° N 22:37:32 41° N 22:40:05 10° N
Cosmos 2333 Rocket 3.1 22:34:25 10° NNW 22:39:52 40° NE 22:41:19 34° E
Cosmos 2016 Rocket 4.1 22:39:51 53° SW 22:41:20 72° W 22:47:44 10° N
Cosmos 1271 Rocket 4.4 22:38:26 10° N 22:40:47 28° NE 22:40:47 28° NE
Cosmos 2061 Rocket 4.1 22:41:23 54° SW 22:42:46 71° W 22:48:57 10° N
Meteor 1-13 Rocket 4.3 22:37:28 10° NNW 22:42:55 59° W 22:43:23 57° WSW
Lacrosse 4 Rocket 3.4 22:45:23 21° ENE 22:45:23 21° ENE 22:47:00 10° NE
Cosmos 2237 Rocket 4.4 22:39:48 10° N 22:43:36 18° NE 22:47:23 10° E
MOS 1-B Rocket 4.1 22:39:47 10° N 22:45:25 62° WNW 22:46:44 48° WSW
Cosmos 2221 Rocket 4.3 22:42:36 10° NNW 22:46:29 49° WNW 22:46:29 49° WNW
Cosmos 1733 Rocket 3.5 22:50:59 60° N 22:50:59 60° N 22:54:41 10° N
Cosmos 1066 Rocket 4.1 22:47:44 10° NNW 22:53:30 83° W 22:53:46 79° SSW
Meteor 1-23 Rocket 4.1 22:49:27 10° NNW 22:55:19 84° W 22:55:43 77° SSW
Thor Agena Rocket 3.7 22:51:38 10° N 22:56:40 64° WNW 22:57:00 62° W
CENTAUR R/B 3.3 22:51:50 16° WSW 22:56:43 52° NW 23:03:50 10° NE
Cosmos 968 Rocket 4.2 22:59:01 42° ENE 22:59:01 42° ENE 23:02:58 10° NNE
Cosmos 967 Rocket 4.5 22:54:27 10° NW 23:00:44 62° WSW 23:01:03 61° SW
Cosmos 44 4.1 22:57:43 10° NW 23:01:33 43° W 23:01:33 43° W
Cosmos 2233 Rocket 4.0 23:14:31 64° SW 23:15:25 74° W 23:21:47 10° N
Cosmos 1464 Rocket 4.4 23:15:36 45° ESE 23:16:06 46° E 23:21:59 10° NNE
Cosmos 1908 Rocket 4.3 23:18:33 51° NNE 23:18:33 51° NNE 23:21:53 10° NNE
Cosmos 2227 Rocket 4.4 23:22:42 13° E 23:22:42 13° E 23:24:41 10° ENE
SL-16 R/B 3.9 23:22:26 10° NW 23:26:08 19° W 23:26:08 19° W
Lacrosse 5 3.7 23:22:39 10° WNW 23:24:41 20° W 23:24:41 20° W
Cosmos 1833 4.4 23:28:44 58° W 23:29:24 63° WNW 23:35:02 10° NNE
Cosmos 2322 3.6 23:24:03 10° NNW 23:29:31 73° W 23:29:31 73° W
Nadezhda 4 Rocket 4.5 23:30:47 10° N 23:36:55 50° ENE 23:38:04 45° ESE
Cosmos 2219 Rocket 2.1 23:32:34 10° NNW 23:38:17 89° WSW 23:38:19 89° SSW
Cosmos 1975 Rocket 3.7 23:38:46 10° N 23:42:25 56° N 23:42:25 56° N
Cosmos 1513 Rocket 4.4 23:42:38 69° SE 23:43:18 76° E 23:49:44 10° NNE
Cosmos 2333 4.5 23:38:24 10° NNW 23:43:44 57° W 23:43:44 57° W
Cosmos 2034 Rocket 4.2 23:43:53 52° ESE 23:44:33 54° E 23:50:40 10° NNE
Okean 2 Rocket 4.5 23:45:22 31° ENE 23:45:22 31° ENE 23:48:38 10° NNE
Cosmos 1503 Rocket 4.0 23:45:55 77° ENE 23:45:55 77° ENE 23:51:02 10° NNE
Cosmos 1072 Rocket 4.3 23:46:51 77° SSE 23:47:19 84° E 23:53:27 10° N
Cosmos 2322 Rocket 4.2 23:45:13 10° WNW 23:48:01 16° W 23:48:01 16° W
Helios 1A 4.0 23:49:48 41° NW 23:49:48 41° NW 23:52:45 10° NNW
SL-16 R/B 4.2 23:46:15 15° ESE 23:50:04 27° ENE 23:55:12 10° N
Cosmos 1486 Rocket 4.4 23:52:11 53° WNW 23:52:24 53° WNW 23:57:31 10° NNE
SL-16 R/B 4.3 23:49:33 10° N 23:53:58 22° NE 23:58:20 10° E
CZ-2D R/B 4.1 23:50:32 10° NE 23:54:04 17° E 23:54:54 17° E
Sich 1 Rocket 4.3 23:55:31 50° NE 23:55:31 50° NE 23:58:56 10° NNE
